Back to catalog

ONEWEB-0532

AliveCommunicationsPO
NORAD 55140·PAYLOAD·🇬🇧 United Kingdom

Launched Jan 10, 2023 from Cape Canaveral Space Force Station

Loading…

Next Passes (next 24 hours)

TLE

FreshSource: CelesTrak SupGP

Epoch: Sep 14, 2026, 15:40 UTC

1 55140C 23004A   26257.65326806  .00004029  00000+0  10389-1 0  2575
2 55140  87.9201 348.0962 0001732 111.3524 325.0527 13.17646601    16

Track ONEWEB-0532 in real time with AllMySat

Download on the App Store